Notices

What's New in latest Release from April 7th, 2021:

- Updated Glossary, including Speed of Maximum Gust, and Total Hourly Precipitation

- Updated national and regional climate services offices contacts and prices information

- Addition of station inventory lists for 1981-2010, 1971-2000, and 1961-1990 Normals.

If you haven't already, please take our survey and provide feedback about our website: https://eccc.sondage-survey.ca/f/LanguageSelection.aspx?s=442ca660-fcf1-47c0-95a9-59707d6fd709

Hourly Data Report for April 06, 2021

WIARTON A
ONTARIO
Current Station Operator: NAVCAN

44°44'39.000" N
81°06'31.000" W
221.90 m
6119499
71633
YVV

Download Data

Hourly Data (April 2021)
Hourly Data Report for April 6, 2021
TIME
LST
Temp Definition
°C
Dew Point Definition
°C
Rel Hum Definition
%
Precip. Amount Definition
mm

Wind Dir Definition
10's deg

Wind Spd Definition
km/h
Visibility Definition
km
Stn Press Definition
kPa
Hmdx Definition


Wind Chill Definition


Weather Definition


00:00 2.4 -0.6 81   9 8 24.1 99.07     LegendNANA
01:00 1.9 -0.3 86   11 4 24.1 99.01     Mainly Clear
02:00 3.2 -1.1 73   5 6 24.1 98.99     LegendNANA
03:00 3.2 -0.7 76   10 4 24.1 98.98     LegendNANA
04:00 1.0 0.0 93   9 3 24.1 99.00     Mainly Clear
05:00 3.5 1.6 88   36 3 24.1 99.01     LegendNANA
06:00 3.9 1.2 82   36 2 24.1 98.99     LegendNANA
07:00 7.7 2.6 70   13 12 24.1 98.94     Cloudy
08:00 9.1 2.8 65   14 12 24.1 98.94     LegendNANA
09:00 11.3 2.2 53   14 20 24.1 98.85     LegendNANA
10:00 12.8 1.6 46   16 21 24.1 98.83     Cloudy
11:00 13.6 2.4 47   16 18 24.1 98.81     LegendNANA
12:00 10.5 3.9 63   4 16 24.1 98.82     Rain
13:00 12.1 3.1 54   9 17 24.1 98.76     Cloudy
14:00 15.7 3.6 44   10 19 24.1 98.67     LegendNANA
15:00 17.2 6.1 48   12 18 24.1 98.56     LegendNANA
16:00 18.1 6.8 47   11 11 24.1 98.49     Mostly Cloudy
17:00 8.5 4.2 74   36 10 19.3 98.63     Rain Showers
18:00 8.2 4.9 80   9 25 19.3 98.57     Rain Showers
19:00 6.7 4.5 86   8 22 19.3 98.68     Rain Showers
20:00 7.5 4.7 82   10 14 24.1 98.66     LegendNANA
21:00 7.5 4.8 83   13 12 24.1 98.66     LegendNANA
22:00 8.8 4.9 77   13 8 24.1 98.66     Mainly Clear
23:00 6.1 4.7 91   4 6 24.1 98.67     LegendNANA

Notes on Data Quality.

Legend

  • E = Estimated
  • M = Missing
  • NA = Not Available*
  • [empty] = Indicates an unobserved value
Date modified: